Location: Montreal
(45.5087°N, 73.5540°W)
Time: 16:41:34
(UTC-05:00)

OTV 5 (USA 277) - Visible Passes

Search period start: 23 January 2019 00:00
Search period end: 02 February 2019 00:00
Orbit: 339 x 349 km, 54.5° (Epoch: 15 January)

Date Brightness Start Highest point End Pass type
(mag) Time Alt. Az. Time Alt. Az. Time Alt. Az.
23 Jan ? 06:50:35 10° S 06:52:45 19° SE 06:54:54 10° E visible
25 Jan ? 06:03:06 10° S 06:05:12 18° SE 06:07:18 10° E visible
26 Jan ? 06:25:47 10° SW 06:28:39 54° SE 06:31:31 10° ENE visible
27 Jan ? 05:16:16 13° SSE 05:17:38 17° SE 05:19:41 10° E visible
28 Jan ? 05:40:01 31° SSW 05:41:05 52° SE 05:43:56 10° ENE visible
29 Jan ? 04:32:00 10° E 04:32:00 10° E 04:32:04 10° E visible
29 Jan ? 06:03:28 28° W 06:04:44 52° NNW 06:07:36 10° NE visible
30 Jan ? 04:55:15 20° ENE 04:55:15 20° ENE 04:56:22 10° ENE visible
30 Jan ? 06:26:41 14° WNW 06:28:34 25° NNW 06:31:05 10° NE visible
31 Jan ? 05:18:20 30° NNE 05:18:20 30° NNE 05:20:02 10° NE visible
01 Feb ? 05:41:19 25° N 05:41:19 25° N 05:43:31 10° NE visible
